Weather Roundup
Issued by NWS Chicago, IL

Home | Current Version | Previous Version | Text Only | Print | Product List | Glossary On
Versions: 1 2 3 4 5 6 7 8 9 10 11 12 13 14 15 16 17 18 19 20 21 22 23 24 25 26 27 28 29 30 31 32 33 34 35 36 37 38 39 40 41 42 43 44 45 46 47 48 49 50
000
NZUS59 KLOT 192010
HRRLOT

CHICAGO AREA WEATHER ROUNDUP
NATIONAL WEATHER SERVICE CHICAGO/ROMEOVILLE IL
300 PM CDT SAT APR 19 2014

NOTE: "FAIR" INDICATES FEW OR NO CLOUDS BELOW 12,000 FEET WITH NO
SIGNIFICANT WEATHER AND/OR OBSTRUCTIONS TO VISIBILITY.

* THESE STATIONS ARE NOT UNDER NWS QUALITY CONTROL. THEY ALSO MAY NOT
  REPORT WEATHER SUCH AS PRECIPITATION OR FOG.

ILZ005-006-012>014-019>023-192100-
NORTHEAST ILLINOIS

CITY           SKY/WX    TMP DP  RH WIND       PRES   REMARKS
OHARE          PTSUNNY   63  36  36 SE9       30.29F
MIDWAY         PTSUNNY   61  40  45 E9        30.29F
AURORA         MOSUNNY   68  35  29 S10G18    30.27F
LANSING*       MOSUNNY   66  35  32 S8        30.29F
JOLIET*        PTSUNNY   67  32  26 SE8       30.28F
WAUKEGAN       PTSUNNY   50  36  58 E8        30.30F
DUPAGE AIRPORT MOSUNNY   67  34  29 SE10      30.27F
WHEELING       PTSUNNY   60  40  47 SE9       30.31F
KANKAKEE*      MOSUNNY   67  38  33 SE14G21   30.28F
MORRIS*        MOSUNNY   68  23  18 S10G16    30.26F
LEWIS AIRPORT* PTSUNNY   67  32  27 SE9       30.27F
NORTHERLY IS     N/A     50  38  63 MISG        N/A
$$

WIZ051-052-058>065-066-070>072-192100-
SOUTHEAST WISCONSIN

CITY           SKY/WX    TMP DP  RH WIND       PRES   REMARKS
MILWAUKEE      PTSUNNY   50  35  56 SE12      30.33F
KENOSHA*       MOSUNNY   53  38  56 E12       30.30F
RACINE*        MOSUNNY   49  35  58 S10       30.33F
BURLINGTON     MOSUNNY   60  31  34 SW9G18    30.29F
WAUKESHA       PTSUNNY   55  30  38 SE17      30.31F
WEST BEND      SUNNY     52  32  46 S13       30.29F
$$

INZ001>003-010>013-019-020-192100-
NORTHWEST INDIANA

CITY           SKY/WX    TMP DP  RH WIND       PRES   REMARKS
GARY*          PTSUNNY   59  37  44 NE8       30.31F
MICHIGAN CITY* NOT AVBL
RENSSELAER*    NOT AVBL
VALPARAISO     MOSUNNY   65  35  33 SE7G17    30.30F
$$

LMZ740>746-192100-
SOUTHERN LAKE MICHIGAN

STATION/POSITION TIME  SKY/WX   TEMP WIND        PRES    VSBY
                                AIR  DIR/SP/G
                 (UTC)          (F)  (DEG/KT/KT) (MB)    (MI)
HARRISON CRIB    2000            42   10/  5/  5   N/A
BURNHAM HARBOR   2000            51  350/  5/  7   N/A
CALUMET HARBOR   2000            48   20/  7/ 10 1026.9F
BURNS HARBOR     NOT AVBL
MICHIGAN CITY    2000            61  110/  9/ 12   N/A
$$

ABBREVIATIONS USED IN REMARKS
   TC - TEMPERATURE IN CELSIUS
  WCI - WIND CHILL INDEX
   HX - HEAT INDEX
  VSB - VISIBILITY
$$


USA.gov is the U.S. government's official web portal to all federal, state and local government web resources and services.